Location: Centerville
(32.8776°N, 96.6203°W)
Time: 15:20:21
(UTC+00:00)

Cosmos 1943 - Pass Details

Date: 17 June 2021
Orbit: 831 x 852 km, 71.0° (Epoch: 26 July)

Event Time Altitude Azimuth Distance (km) Brightness Sun altitude
Exits shadow 07:23:40 44° 64° (ENE) 1,146 4.0 -32.2°
Drops below altitude 10° 07:27:49 10° 31° (NNE) 2,452 6.4 -31.9°
Sets 07:30:19 0° 27° (NNE) 3,392 7.4 -31.8°
